• In Hungary
  • List of Countries
  • For 7 days
  • Water Temperature
  • Satellite Maps
  • Weather Map
  • News
  • Weather Widgets
  • user-avatar
    Login

    Hourly Weather Podgaj

    Today, 19 November, Sunday

    Time Temperature Precipitation Wind Pressure Humidity
    00:00 0°C° 0.1 mm 5 mps 732 mmHg 76%
    01:00 0°C° 0.1 mm 5 mps 732 mmHg 75%
    02:00 0°C° 0.1 mm 5 mps 732 mmHg 77%
    03:00 0°C° 0.1 mm 5 mps 731 mmHg 78%
    04:00 0°C° 0.1 mm 5 mps 731 mmHg 80%
    05:00 0°C° 0 mm 5 mps 731 mmHg 81%
    06:00 -1°C° 0 mm 4 mps 731 mmHg 83%
    07:00 -1°C° 0 mm 4 mps 731 mmHg 85%
    08:00 0°C° 0 mm 5 mps 731 mmHg 80%
    09:00 +1°C° 0 mm 5 mps 731 mmHg 76%
    10:00 +2°C° 0 mm 6 mps 731 mmHg 71%
    11:00 +2°C° 0 mm 5 mps 731 mmHg 68%
    12:00 +3°C° 0 mm 5 mps 731 mmHg 64%
    13:00 +3°C° 0 mm 5 mps 730 mmHg 61%
    14:00 +2°C° 0 mm 5 mps 730 mmHg 64%
    15:00 +3°C° 0 mm 4 mps 730 mmHg 67%
    16:00 +1°C° 0 mm 4 mps 730 mmHg 71%
    17:00 +1°C° 0.1 mm 4 mps 730 mmHg 72%
    18:00 +1°C° 0.1 mm 5 mps 730 mmHg 73%
    19:00 0°C° 0.1 mm 5 mps 730 mmHg 75%
    20:00 +1°C° 0.3 mm 6 mps 730 mmHg 77%
    21:00 +1°C° 0.3 mm 6 mps 730 mmHg 79%
    22:00 +1°C° 0.3 mm 6 mps 730 mmHg 81%
    23:00 -1°C° 0.3 mm 6 mps 730 mmHg 80%

    Tomorrow, 20 November, Monday

    Time Temperature Precipitation Wind Pressure Humidity
    00:00 0°C° 0.3 mm 5 mps 730 mmHg 79%
    01:00 0°C° 0.3 mm 5 mps 730 mmHg 79%
    02:00 -2°C° 0.1 mm 6 mps 730 mmHg 80%
    03:00 -2°C° 0.1 mm 6 mps 730 mmHg 80%
    04:00 -2°C° 0.1 mm 6 mps 731 mmHg 81%
    05:00 -2°C° 0.6 mm 7 mps 731 mmHg 82%
    06:00 -2°C° 0.6 mm 7 mps 731 mmHg 83%
    07:00 -2°C° 0.6 mm 8 mps 731 mmHg 84%
    08:00 -2°C° 0.3 mm 8 mps 732 mmHg 83%
    09:00 -1°C° 0.3 mm 8 mps 732 mmHg 82%
    10:00 -1°C° 0.3 mm 8 mps 733 mmHg 82%
    11:00 -1°C° 0.1 mm 8 mps 733 mmHg 81%
    12:00 -1°C° 0.1 mm 7 mps 733 mmHg 80%
    13:00 -1°C° 0.1 mm 7 mps 734 mmHg 79%
    14:00 -1°C° 0 mm 6 mps 734 mmHg 80%
    15:00 0°C° 0 mm 5 mps 734 mmHg 81%
    16:00 -1°C° 0 mm 4 mps 735 mmHg 81%
    17:00 0°C° 0 mm 3 mps 735 mmHg 84%
    18:00 0°C° 0 mm 3 mps 735 mmHg 86%
    19:00 +1°C° 0 mm 2 mps 735 mmHg 88%
    20:00 0°C° 0 mm 3 mps 735 mmHg 89%
    21:00 0°C° 0 mm 3 mps 735 mmHg 90%
    22:00 0°C° 0 mm 3 mps 735 mmHg 91%
    23:00 0°C° 0.1 mm 3 mps 734 mmHg 91%

    Day after tomorrow, 21 November, Tuesday

    Time Temperature Precipitation Wind Pressure Humidity
    00:00 0°C° 0.1 mm 3 mps 734 mmHg 91%
    01:00 0°C° 0.1 mm 3 mps 733 mmHg 91%
    02:00 0°C° 0.6 mm 3 mps 733 mmHg 91%
    03:00 0°C° 0.6 mm 3 mps 732 mmHg 91%
    04:00 0°C° 0.6 mm 3 mps 731 mmHg 92%
    05:00 0°C° 1.1 mm 3 mps 731 mmHg 93%
    06:00 0°C° 1.1 mm 3 mps 730 mmHg 94%
    07:00 0°C° 1.1 mm 3 mps 729 mmHg 95%
    08:00 +1°C° 0.5 mm 3 mps 729 mmHg 96%
    09:00 +1°C° 0.5 mm 3 mps 729 mmHg 97%
    10:00 +1°C° 0.5 mm 3 mps 729 mmHg 98%
    11:00 +2°C° 0.1 mm 3 mps 730 mmHg 98%
    12:00 +3°C° 0.1 mm 2 mps 730 mmHg 98%
    13:00 +3°C° 0.1 mm 2 mps 730 mmHg 98%
    14:00 +3°C° 0 mm 2 mps 730 mmHg 97%
    15:00 +2°C° 0 mm 2 mps 731 mmHg 97%
    16:00 +2°C° 0 mm 2 mps 731 mmHg 97%
    17:00 +2°C° 0 mm 2 mps 732 mmHg 96%
    18:00 +3°C° 0 mm 1 mps 733 mmHg 95%
    19:00 +3°C° 0 mm 1 mps 733 mmHg 94%
    20:00 +2°C° 0 mm 1 mps 734 mmHg 94%
    21:00 +2°C° 0 mm 1 mps 734 mmHg 93%
    22:00 +2°C° 0 mm 1 mps 735 mmHg 92%
    23:00 +2°C° 0 mm 1 mps 735 mmHg 92%

    22 November, Wednesday

    Time Temperature Precipitation Wind Pressure Humidity
    00:00 +1°C° 0 mm 1 mps 735 mmHg 92%
    01:00 +1°C° 0 mm 1 mps 735 mmHg 92%
    02:00 +1°C° 0 mm 1 mps 735 mmHg 92%
    03:00 +1°C° 0 mm 1 mps 735 mmHg 92%
    04:00 +1°C° 0 mm 1 mps 735 mmHg 92%
    05:00 +1°C° 0 mm 1 mps 736 mmHg 92%
    06:00 -1°C° 0 mm 2 mps 736 mmHg 92%
    07:00 -1°C° 0 mm 2 mps 736 mmHg 91%
    08:00 +1°C° 0.1 mm 2 mps 736 mmHg 92%
    09:00 +1°C° 0.1 mm 3 mps 736 mmHg 92%
    10:00 +1°C° 0.1 mm 3 mps 736 mmHg 92%
    11:00 +2°C° 0 mm 3 mps 736 mmHg 92%
    12:00 +3°C° 0 mm 3 mps 735 mmHg 92%
    13:00 +4°C° 0 mm 3 mps 735 mmHg 92%
    14:00 +4°C° 0 mm 3 mps 735 mmHg 92%
    15:00 +4°C° 0 mm 3 mps 735 mmHg 92%
    16:00 +5°C° 0 mm 2 mps 736 mmHg 92%
    17:00 +4°C° 0 mm 3 mps 736 mmHg 92%
    18:00 +4°C° 0 mm 3 mps 736 mmHg 91%
    19:00 +4°C° 0 mm 3 mps 736 mmHg 91%
    20:00 +3°C° 0 mm 3 mps 736 mmHg 90%
    21:00 +3°C° 0 mm 3 mps 736 mmHg 90%
    22:00 +3°C° 0 mm 3 mps 737 mmHg 89%
    23:00 +3°C° 0 mm 3 mps 737 mmHg 89%

    23 November, Thursday

    Time Temperature Precipitation Wind Pressure Humidity
    00:00 +3°C° 0 mm 3 mps 737 mmHg 88%
    01:00 +3°C° 0 mm 3 mps 737 mmHg 88%
    02:00 +3°C° 0 mm 3 mps 737 mmHg 88%
    03:00 +3°C° 0 mm 3 mps 737 mmHg 87%
    04:00 +3°C° 0 mm 3 mps 737 mmHg 87%
    05:00 +2°C° 0 mm 3 mps 737 mmHg 86%
    06:00 +2°C° 0 mm 3 mps 738 mmHg 86%
    07:00 +2°C° 0 mm 3 mps 738 mmHg 86%
    08:00 +3°C° 0 mm 3 mps 738 mmHg 81%
    09:00 +4°C° 0 mm 3 mps 739 mmHg 77%
    10:00 +5°C° 0 mm 3 mps 739 mmHg 73%
    11:00 +7°C° 0 mm 3 mps 739 mmHg 71%
    12:00 +8°C° 0 mm 3 mps 739 mmHg 68%
    13:00 +9°C° 0 mm 3 mps 739 mmHg 66%
    14:00 +8°C° 0 mm 3 mps 739 mmHg 70%
    15:00 +7°C° 0 mm 3 mps 739 mmHg 73%
    16:00 +5°C° 0 mm 3 mps 739 mmHg 77%
    17:00 +5°C° 0 mm 3 mps 739 mmHg 78%
    18:00 +5°C° 0 mm 3 mps 739 mmHg 79%
    19:00 +5°C° 0 mm 4 mps 740 mmHg 80%
    20:00 +4°C° 0 mm 4 mps 740 mmHg 81%
    21:00 +4°C° 0 mm 4 mps 740 mmHg 82%
    22:00 +4°C° 0 mm 4 mps 740 mmHg 83%
    23:00 +4°C° 0 mm 4 mps 740 mmHg 84%

    24 November, Friday

    Time Temperature Precipitation Wind Pressure Humidity
    00:00 +4°C° 0 mm 4 mps 740 mmHg 85%
    01:00 +3°C° 0 mm 4 mps 741 mmHg 87%
    02:00 +3°C° 0 mm 4 mps 741 mmHg 87%
    03:00 +3°C° 0 mm 4 mps 741 mmHg 88%
    04:00 +3°C° 0 mm 3 mps 741 mmHg 88%
    05:00 +3°C° 0 mm 3 mps 741 mmHg 89%
    06:00 +3°C° 0 mm 3 mps 741 mmHg 89%
    07:00 +3°C° 0 mm 3 mps 742 mmHg 89%
    08:00 +4°C° 0 mm 3 mps 742 mmHg 86%
    09:00 +5°C° 0 mm 3 mps 742 mmHg 82%
    10:00 +7°C° 0 mm 3 mps 742 mmHg 79%
    11:00 +8°C° 0 mm 3 mps 742 mmHg 77%
    12:00 +9°C° 0 mm 3 mps 742 mmHg 75%
    13:00 +9°C° 0 mm 3 mps 742 mmHg 73%
    14:00 +9°C° 0 mm 2 mps 742 mmHg 77%
    15:00 +8°C° 0 mm 2 mps 742 mmHg 81%
    16:00 +7°C° 0 mm 2 mps 742 mmHg 86%
    17:00 +6°C° 0 mm 2 mps 742 mmHg 87%
    18:00 +6°C° 0 mm 2 mps 742 mmHg 88%
    19:00 +6°C° 0 mm 2 mps 742 mmHg 89%
    20:00 +6°C° 0 mm 2 mps 743 mmHg 89%
    21:00 +5°C° 0 mm 2 mps 743 mmHg 89%
    22:00 +5°C° 0 mm 2 mps 743 mmHg 89%
    23:00 +5°C° 0 mm 2 mps 743 mmHg 89%
    Show more